Flag for Honduras Weather past 2 weeks in La Ceiba, Honduras

Now
77 °F

Partly cloudy.


Feels Like: 78 °F
Forecast: 77 / 87 °F
Wind: 3 mph from Southwest

Location: La Ceiba Airport

Current Time: Aug 1, 2015 at 9:18:04 PM

Latest Report: Aug 1, 2015 at 9:00 PM


Visibility: N/A

Pressure: 29.89 "Hg

Humidity: 89%

Dew point: 73 °F

Location of La CeibaLocation

Historic Weather in La Ceiba — Graph

°F

La Ceiba temperature yesterday

Maximum temperature yesterday: 90 °F (at 1:00 PM)
Minimum temperature yesterday: 72 °F (at 6:00 AM)
Average temperature yesterday: 82 °F

Past Weeks' High & Low Weather Summary

 TemperatureHumidityPressure
High90 °F (Jul 18, 1:00 PM)94% (Jul 17, 11:00 PM)30.01 "Hg (Jul 17, 11:00 PM)
Low72 °F (Jul 19, 6:00 AM)59% (Jul 25, 3:00 PM)29.86 "Hg (Jul 25, 3:00 PM)
Average83 °F76%29.93 "Hg
* Reported Jul 17 8:00 PM — Aug 1 8:00 PM, La Ceiba, Weather by CustomWeather, © 2015

Note: Actual official high and low records may vary slightly from our data, if they occured in-between our weather recording intervals... More about our weather records

Advertising

La Ceiba weather history for previous 24 hours

 ConditionsComfort  
Time TempWeatherWind HumidityBarometerVisibility
8:00 PM
Sat, Aug 1
77 °FPassing clouds.3 mph94%29.89 "HgN/A
7:00 PM79 °FPassing clouds.3 mph89%29.86 "HgN/A
6:00 PM81 °FBroken clouds.7 mph84%29.86 "HgN/A
5:00 PM84 °FLight rain. Broken clouds.8 mph79%29.86 "HgN/A
4:00 PM84 °FScattered clouds.10 mph74%29.86 "HgN/A
3:00 PM86 °FScattered clouds.16 mph75%29.89 "HgN/A
2:00 PM90 °FScattered clouds.8 mph63%29.86 "HgN/A
1:00 PM86 °FScattered clouds.8 mph66%29.89 "HgN/A
12:00 PM86 °FScattered clouds.13 mph70%29.92 "HgN/A
11:00 AM88 °FScattered clouds.9 mph66%29.95 "HgN/A
10:00 AM86 °FScattered clouds.8 mph70%29.95 "HgN/A
9:00 AM84 °FPassing clouds.3 mph70%29.95 "HgN/A
8:00 AM82 °FScattered clouds.No wind70%29.95 "HgN/A
7:00 AM77 °FScattered clouds.No wind79%29.98 "HgN/A
6:00 AM72 °FPartly sunny.No wind94%29.92 "HgN/A
12:00 AM73 °FPassing clouds.No wind94%29.95 "HgN/A
11:00 PM
Fri, Jul 31
75 °FPassing clouds.No wind89%29.98 "HgN/A
10:00 PM79 °FPassing clouds.5 mph79%29.98 "HgN/A
9:00 PM77 °FThunderstorms. Partly cloudy.5 mph83%29.95 "HgN/A
Weather by CustomWeather, © 2015

See weather overviewHow to use our weather pages